Weather History for Iron Mountain, MI

Change the Weather History Date:

Tuesday, March 4, 2014

  Actual Average Record
Temperature  
Mean Temperature 11 °F -  
Max Temperature 19 °F 34 °F 48 °F (1949)
Min Temperature 0 °F 13 °F -12 °F (1978)
Degree Days  
Heating Degree Days 54    
Moisture  
Dew Point 3 °F    
Average Humidity 72    
Maximum Humidity 88    
Minimum Humidity 48    
Precipitation  
Precipitation 0.00 in - - ()
Sea Level Pressure  
Sea Level Pressure 30.22 in    
Wind  
Wind Speed 2 mph (NW)    
Max Wind Speed 7 mph    
Max Gust Speed -    
Visibility 6 miles    
Events Snow    
Averages and records for this station are not official NWS values.
T = Trace of Precipitation, MM = Missing Value Source: NWS Daily Summary

Daily Weather History Graph

Daily Weather History Graph

Search for Another Location

Airport:

Trip Planner

Search our weather history database for the weather conditions in past years. The results will help you decide how hot, cold, wet, or windy it might be!

Date:

Astronomy

Mar. 04, 2014 Rise Set
Actual Time 6:25 AM CST 5:43 PM CST
Civil Twilight 5:55 AM CST 6:13 PM CST
Nautical Twilight 5:21 AM CST 6:47 PM CST
Astronomical Twilight 4:46 AM CST 7:22 PM CST
Moon 7:58 AM CST (3/4) 10:05 PM CST (3/4)
Length of Visible Light 12h 17m
Length of Day
11h 17m
Waxing Crescent, 15% of the Moon is Illuminated
Mar 4
Waxing Crescent
Mar 8
First Quarter
Mar 16
Full
Mar 23
Last Quarter
Mar 30
New

Hourly Weather History & Observations

Time (CST) Temp. Windchill Dew Point Humidity Pressure Visibility Wind Dir Wind Speed Gust Speed Precip Events Conditions
12:04 AM 10.4 °F 4.0 °F 5.0 °F 79% 30.20 in 2.5 mi West 3.5 mph - 0.00 in Snow Light Snow
12:25 AM 10.4 °F 4.0 °F 3.2 °F 73% 30.19 in 3.0 mi West 3.5 mph - 0.00 in Snow Light Snow
12:54 AM 9.0 °F 0.6 °F 3.9 °F 80% 30.27 in 5.0 mi WSW 4.6 mph - 0.00 in Snow Light Snow
1:54 AM 9.0 °F 0.6 °F 3.0 °F 77% 30.26 in 7.0 mi WSW 4.6 mph - 0.00 in Snow Light Snow
2:54 AM 9.0 °F - 3.0 °F 77% 30.25 in 5.0 mi Calm Calm - 0.00 in Snow Light Snow
3:15 AM 8.6 °F - 3.2 °F 79% 30.16 in 2.0 mi Calm Calm - 0.00 in Snow Light Snow
3:27 AM 8.6 °F - 3.2 °F 79% 30.16 in 1.8 mi Calm Calm - 0.00 in Snow Light Snow
3:38 AM 8.6 °F - 3.2 °F 79% 30.16 in 2.0 mi Calm Calm - 0.00 in Snow Light Snow
3:49 AM 8.6 °F - 3.2 °F 79% 30.16 in 4.0 mi Calm Calm - 0.00 in Snow Light Snow
3:54 AM 9.0 °F - 3.0 °F 77% 30.23 in 4.0 mi Calm Calm - 0.00 in Snow Light Snow
4:18 AM 8.6 °F 2.0 °F 3.2 °F 79% 30.16 in 2.0 mi SSW 3.5 mph - 0.00 in Snow Light Snow
4:38 AM 8.6 °F - 3.2 °F 79% 30.15 in 2.0 mi Calm Calm - 0.00 in Snow Light Snow
4:52 AM 8.6 °F 2.0 °F 3.2 °F 79% 30.15 in 1.5 mi WNW 3.5 mph - 0.00 in Snow Light Snow
4:54 AM 8.1 °F 1.4 °F 3.0 °F 80% 30.23 in 1.5 mi WNW 3.5 mph - 0.00 in Snow Light Snow
5:27 AM 8.6 °F - 3.2 °F 79% 30.15 in 2.0 mi Calm Calm - 0.00 in Snow Light Snow
5:54 AM 8.1 °F - 3.0 °F 80% 30.22 in 2.5 mi Calm Calm - 0.00 in Snow Light Snow
6:08 AM 8.6 °F 2.0 °F 3.2 °F 79% 30.15 in 3.0 mi WSW 3.5 mph - 0.00 in Snow Light Snow
6:39 AM 8.6 °F 2.0 °F 3.2 °F 79% 30.16 in 1.8 mi West 3.5 mph - 0.00 in Snow Light Snow
6:50 AM 8.6 °F 2.0 °F 3.2 °F 79% 30.15 in 0.8 mi West 3.5 mph - 0.00 in Snow Light Snow
6:54 AM 8.1 °F - 3.0 °F 80% 30.24 in 0.8 mi Calm Calm - 0.00 in Snow Light Snow
7:14 AM 8.6 °F 2.0 °F 3.2 °F 79% 30.15 in 1.0 mi West 3.5 mph - 0.00 in Snow Light Snow
7:29 AM 8.6 °F - 3.2 °F 79% 30.15 in 3.0 mi Calm Calm - 0.00 in Snow Light Snow
7:54 AM 9.0 °F 2.4 °F 3.0 °F 77% 30.24 in 4.0 mi WNW 3.5 mph - 0.00 in Snow Light Snow
8:54 AM 10.0 °F 1.8 °F 3.0 °F 73% 30.24 in 9.0 mi WNW 4.6 mph - 0.00 in Snow Light Snow
9:54 AM 12.9 °F - 1.9 °F 62% 30.22 in 10.0 mi Calm Calm - N/A   Clear
10:54 AM 14.0 °F - 3.0 °F 62% 30.21 in 10.0 mi Calm Calm - N/A   Clear
11:54 AM 18.0 °F 12.7 °F 3.0 °F 52% 30.21 in 10.0 mi Variable 3.5 mph - N/A   Clear
12:54 PM 18.0 °F - 3.0 °F 52% 30.21 in 10.0 mi Calm Calm - N/A   Clear
1:54 PM 19.0 °F - 3.0 °F 50% 30.20 in 10.0 mi Calm Calm - N/A   Clear
2:54 PM 19.9 °F - 3.0 °F 48% 30.19 in 10.0 mi Calm Calm - N/A   Mostly Cloudy
3:54 PM 19.9 °F 13.4 °F 3.0 °F 48% 30.21 in 10.0 mi NNE 4.6 mph - N/A   Mostly Cloudy
4:54 PM 19.0 °F - 3.9 °F 52% 30.21 in 10.0 mi Calm Calm - N/A   Overcast
5:54 PM 19.0 °F 11.1 °F 3.9 °F 52% 30.25 in 10.0 mi NNW 5.8 mph - N/A   Overcast
6:54 PM 17.1 °F 7.6 °F 7.0 °F 65% 30.27 in 10.0 mi ENE 6.9 mph - N/A   Overcast
7:54 PM 16.0 °F 7.4 °F 6.1 °F 65% 30.30 in 10.0 mi NE 5.8 mph - N/A   Overcast
8:54 PM 14.0 °F 8.2 °F 6.1 °F 71% 30.31 in 10.0 mi East 3.5 mph - N/A   Overcast
9:54 PM 12.0 °F 5.9 °F 3.9 °F 70% 30.35 in 10.0 mi ENE 3.5 mph - N/A   Overcast
10:09 PM 12.2 °F 4.3 °F 3.2 °F 67% 30.27 in 10.0 mi East 4.6 mph - N/A   Overcast
10:54 PM 10.0 °F 1.8 °F 3.9 °F 76% 30.38 in 10.0 mi North 4.6 mph - N/A   Overcast
11:12 PM 3.2 °F -4.2 °F -0.4 °F 85% 30.30 in 10.0 mi North 3.5 mph - N/A   Scattered Clouds
11:54 PM -0.0 °F -11.6 °F -2.9 °F 88% 30.40 in 10.0 mi North 5.8 mph - N/A   Partly Cloudy